[Date Prev][Date Next][Thread Prev][Thread Next] - [Date Index][Thread Index][Author Index]

2 Line ISS Keps 10-1



ISS
1 25544U 98067A   06273.82407407  .00028301  00000-0  17770-3 0  7740
2 25544 051.6375 003.2827 0013472 040.8905 095.3806 15.76398831449823
----
Sent via sarex@amsat.org. Opinions expressed are those of the author.
Not an AMSAT member? Join now to support the amateur satellite program!
Subscription settings: http://amsat.org/mailman/listinfo/sarex



AMSAT Top AMSAT Home